GAOFEN 3 DEB, 42679

Orbit data source: Space-Track

GAOFEN 3 DEB, 42679 is space debris in SSO originally from a launch on Tue, 09 Aug 2016 UTC launched from the Taiyaun Space Center, China (TSC). Debris objects in space refer to the collection of defunct objects orbiting the Earth. Examples of debris include non-operational satellites, rocket bodies, and fragments generated from explosions, collisions, or faulty payload assembly.

Loading next visibility...
Identifier
42679, 2016-049D
Orbit
SSO
Country
Flag of CNCN / PRC
Related business
Manufacturer
Unknown
Mission
Spacecraft
Bus & Motor
Unknown
Mass
Unknown
Launch date (UTC)
2016-08-09 (9 years ago)
Launch vehicle
Unknown
Launch site
Taiyaun Space Center, China (TSC)
Object type
Payload
Rocket body
Debris
Shape & HBR
Unknown shape, 0.1 m
Radar Cross Section
Small (<0.1 m²)

Expand to show TLE details & history
Last TLE update: 6 hours ago

TLE from 6 hours ago
0 GAOFEN 3 DEB
1 42679U 16049D   26036.28972288  .00000324  00000-0  10167-3 0  9998
2 42679  98.3232  50.0500 0007543  44.9344 315.2458 14.46595523500764
Epoch: 2026-02-05T06:57Z
TLE epoch observation values (Epoch: 2026-02-05T06:57:12.056Z)
Latitude
-0.00001°
Longitude
170.30569°
Altitude
735.943 km
Speed
7.489 km/s
True Right ascension
03h 20m 12s
True Declination
0° 00' 00"
Sunlit
Object was in daylight at epoch
Visualization orbit readout
Latitude
Unknown
Longitude
Unknown
Altitude
Unknown
Speed
Unknown
Apparent Right ascension
Unknown
Apparent Declination
Unknown
Sunlit
N/A
Visualization observer readout
Local Sidereal Time
15:19:09
Azimuth
Unknown
Elevation
Unknown
Doppler factor
Unknown
Orbital elements
Apogee altitude
739.259 km
Perigee altitude
728.53 km
Semi-major axis
7,112.032 km
Eccentricity
0.00075
Inclination
98.3232°
RAAN
50.05°
Arg. of periapsis
44.9344°
True anomaly
315.1849°
Mean anomaly
315.2458°
Eccentric anomaly
315.21536°
Mean motion
3.6187 °/min
Orbital period
99.48 mins
BSTAR
0.00010167
Loading maneuver chart data...
Computing Atmospheric mass density...
Loading historical data...
Loading historical data...
Loading historical data...
Loading historical data...
Loading historical data...
Loading historical data...
Loading historical data...
Other satellites on launch #49 in the year 2016 (2016-08-09 UTC)

Documentation

Showing up to 5 results
|